Other Public Products
Issued by NWS Charleston, SC

Current Version | Previous Version | Graphics & Text | Print | Product List | Glossary On
Versions: 1 2 3 4 5 6 7 8 9 10 11 12 13 14 15 16 17 18 19 20 21 22 23 24 25 26 27 28 29 30 31 32 33 34 35 36 37 38 39 40 41 42 43 44 45 46 47 48 49 50
000
FPUS82 KCHS 202112
OPUCHS

TEST...KCHS/KSAV Gateway Observations...TEST
National Weather Service Charleston SC
400 PM EST SAT JAN 20 2018

NOTE: "fair" indicates few or no clouds below 12,000 feet with no
significant weather and/or obstructions to visibility.

SCZ050-WAZ558-NCZ071-TXZ119-213-PAZ071-DCZ001-FLZ074-172-MI076-
NYZ176-178-MAZ016-IL014-TNZ027-NJZ106-GAZ044-MD014-202200-

...Gateway Observations for Charleston International...

CITY           SKY/WX    TMP DP  RH WIND       PRES   REMARKS
Chas Airport   FAIR      64  28  25 W8        30.18S
Seattle        CLOUDY    44  39  82 SE13      30.04F
Charlotte      FAIR      59  32  36 S9        30.15S
Dallas DFW     MOSUNNY   71  53  52 S21G28    29.87F
Dallas Love    MOSUNNY   70  54  56 S20       29.89F
Philladelphia  PTSUNNY   56  28  34 W14       29.95R
Wash National  PTSUNNY   60  31  33 SW9G17    29.99R
Baltimore      PTSUNNY   58  31  35 W7        29.96R
Miami          CLOUDY    73  59  61 E9        30.18R
Detroit        PTSUNNY   42  30  62 SW13      29.96R
Newark         MOCLDY    50  25  37 W20G29    29.90R
Laguardia      MOCLDY    50  25  37 W20G25    29.89R
J F K          MOCLDY    51  26  37 W21G26    29.90R
Boston Logan   MOCLDY    47  27  45 W16       29.74R
Ft. Lauderdale CLOUDY    71  60  68 E10       30.18R
Chicago O`Hare FAIR      45  32  60 SW8       29.91R
Chicago Midway FAIR      46  33  60 SW10      29.92S
Houston Bush   LGT RAIN  69  66  90 SE3       30.01F
Houston Hobby  PTSUNNY   72  68  87 S10       30.02S
Nashville      FAIR      64  28  25 S12       30.14F
Atlanta        FAIR      63  41  44 N9        30.20F

$$

GAZ044-118-TXZ119-213-NCZ071-DCZ001-MDZ014-506-PAZ021-071-NJZ106-
NYZ176-178-MAZ106-OHZ011-021-055-MIZ076-KYZ091-ILZ014-INZ047-
MNZ060-ONZ431-202200-

...Gateway Observations for Savannah International...

CITY           SKY/WX    TMP DP  RH WIND       PRES   REMARKS
Savannah Arpt  FAIR      64  27  24 SW7       30.21S
Atlanta        FAIR      63  41  44 N9        30.20F
Charlotte      FAIR      59  32  36 S9        30.15S
Dallas DFW     MOSUNNY   71  53  52 S21G28    29.87F
Houston Bush   LGT RAIN  69  66  90 SE3       30.01F
Wash National  PTSUNNY   60  31  33 SW9G17    29.99R
Wash Dulles    FAIR      60  31  33 SW6       29.98R
Baltimore      PTSUNNY   58  31  35 W7        29.96R
Philadelphia   PTSUNNY   56  28  34 W14       29.95R
Newark         MOCLDY    50  25  37 W20G29    29.90R
Laguardia      MOCLDY    50  25  37 W20G25    29.89R
J F K          MOCLDY    51  26  37 W21G26    29.90R
Boston         MOCLDY    47  27  45 W16       29.74R
Pittsburg      PTSUNNY   46  27  47 SW15G21   30.01R
Akron          PTSUNNY   41  27  57 SW12      30.01R
Cleveland      FAIR      43  28  55 SW12      30.03R
Cincinnati     CLOUDY    46  32  58 S6        30.07S
Columbus       FAIR      42  30  62 SW10      30.06S
Detroit        PTSUNNY   42  30  62 SW13      29.96R
Chicago O`Hare FAIR      45  32  60 SW8       29.91R
Minneapolis    PTSUNNY   41  33  73 S3        29.88R
Indianapolis   CLOUDY    43  32  65 SW10      30.04S
Toronto Canada PTSUNNY   41  28  60 W10       29.89R

$$




USA.gov is the U.S. government's official web portal to all federal, state and local government web resources and services.